DW0350 Weather Reports


time (UTC)temp
C
wind
direction
speed
KPH
gust
KPH
rain 1hr
cm
rain 24hr
cm
rain mn
cm
humidity
%
barometer
mb
20260902220019 16 267 0.0 0.0 0.00 0.00 0.00 86 1021.0
20260902214511 16 274 0.0 0.0 0.00 0.00 0.00 85 1020.9
20260902213009 16 274 0.0 0.0 0.00 0.00 0.00 85 1021.0
20260902211509 16 274 0.0 0.0 0.00 0.00 0.00 85 1020.9
20260902210022 17 274 0.0 0.0 0.00 0.00 0.00 83 1020.9
20260902204510 18 274 0.0 0.0 0.00 0.00 0.00 82 1020.9
20260902203007 18 274 0.0 0.0 0.00 0.00 0.00 81 1021.0
20260902201510 18 274 0.0 0.0 0.00 0.00 0.00 80 1021.0
20260902200009 19 274 0.0 0.0 0.00 0.00 0.00 78 1020.9
20260902194506 19 274 0.0 0.0 0.00 0.00 0.00 76 1020.9
20260902193005 18 274 0.0 0.0 0.00 0.00 0.00 76 1020.7
20260902191505 18 274 0.0 0.0 0.00 0.00 0.00 75 1020.6
20260902190008 20 274 0.0 0.0 0.00 0.00 0.00 73 1020.5
20260902184503 20 274 0.0 0.0 0.00 0.00 0.00 70 1020.2
20260902183003 21 274 0.0 0.0 0.00 0.00 0.00 70 1020.1
20260902181503 21 274 0.0 0.0 0.00 0.00 0.00 66 1020.1
20260902180004 22 274 0.0 0.0 0.00 0.00 0.00 61 1020.1
20260902174501 23 211 0.0 0.0 0.00 0.00 0.00 57 1020.1
20260902173001 23 256 0.0 0.0 0.00 0.00 0.00 57 1020.2
20260902171501 23 217 0.0 0.0 0.00 0.00 0.00 56 1020.3
20260902170108 23 251 0.0 0.0 0.00 0.00 0.00 59 1020.1
20260902164559 24 246 0.0 0.0 0.00 0.00 0.00 56 1020.2
20260902163058 24 249 0.0 0.0 0.00 0.00 0.00 56 1020.1
20260902161556 25 207 0.0 0.0 0.00 0.00 0.00 54 1020.3
20260902160055 24 227 0.0 0.0 0.00 0.00 0.00 53 1020.4
20260902154553 24 231 0.0 0.0 0.00 0.00 0.00 54 1020.6
20260902153053 25 198 0.0 0.0 0.00 0.00 0.00 54 1020.5
20260902151553 24 257 0.0 0.0 0.00 0.00 0.00 57 1020.7
20260902150049 24 244 0.0 0.0 0.00 0.00 0.00 56 1020.9
20260902144600 23 169 0.0 0.0 0.00 0.00 0.00 55 1020.9
20260902143049 24 210 0.0 0.0 0.00 0.00 0.00 55 1021.0
20260902141546 24 171 0.0 0.0 0.00 0.00 0.00 53 1021.0
20260902140043 24 203 0.0 0.0 0.00 0.00 0.00 54 1021.4
20260902134542 23 225 0.0 0.0 0.00 0.00 0.00 57 1021.4
20260902133041 23 249 0.0 0.0 0.00 0.00 0.00 54 1021.4
20260902131541 23 216 0.0 0.0 0.00 0.00 0.00 55 1021.5
20260902130039 23 249 0.0 0.0 0.00 0.00 0.00 55 1021.3
20260902124540 23 198 0.0 0.0 0.00 0.00 0.00 58 1021.4
20260902123035 22 281 0.0 0.0 0.00 0.00 0.00 59 1021.7
20260902121535 22 193 0.0 0.0 0.00 0.00 0.00 59 1021.7
20260902120033 22 194 0.0 0.0 0.00 0.00 0.00 59 1021.8
20260902114534 22 234 0.0 0.0 0.00 0.00 0.00 57 1021.9
20260902113031 22 227 0.0 0.0 0.00 0.00 0.00 60 1022.1
20260902111531 22 265 0.0 0.0 0.00 0.00 0.00 61 1022.2
20260902110029 22 196 0.0 0.0 0.00 0.00 0.00 59 1022.2
20260902104538 21 237 0.0 0.0 0.00 0.00 0.00 59 1022.4
20260902103027 21 281 0.0 0.0 0.00 0.00 0.00 60 1022.5
20260902101534 21 165 0.0 0.0 0.00 0.00 0.00 59 1022.3
20260902100024 21 246 0.0 0.0 0.00 0.00 0.00 61 1022.4
20260902094521 20 163 0.0 0.0 0.00 0.00 0.00 64 1022.5
20260902093032 20 211 0.0 0.0 0.00 0.00 0.00 64 1022.5
20260902091522 20 223 0.0 0.0 0.00 0.00 0.00 67 1022.5
20260902090017 18 195 0.0 0.0 0.00 0.00 0.00 71 1022.6
20260902084514 18 203 0.0 0.0 0.00 0.00 0.00 74 1022.5
20260902083011 18 188 0.0 0.0 0.00 0.00 0.00 77 1022.3
20260902081508 17 194 0.0 0.0 0.00 0.00 0.00 80 1022.2
20260902080005 16 180 0.0 0.0 0.00 0.00 0.00 82 1022.0
20260902074501 16 178 0.0 0.0 0.00 0.00 0.00 85 1021.9
20260902073058 15 212 0.0 0.0 0.00 0.00 0.00 88 1021.9
20260902071554 14 213 0.0 0.0 0.00 0.00 0.00 90 1021.9
20260902070050 13 213 0.0 0.0 0.00 0.00 0.00 93 1021.9
20260902064605 11 326 0.0 0.0 0.00 0.00 0.00 93 1021.7
20260902063049 11 327 0.0 0.0 0.00 0.00 0.00 93 1021.6
20260902061555 11 327 0.0 0.0 0.00 0.00 0.00 93 1021.6
20260902060048 11 327 0.0 0.0 0.00 0.00 0.00 93 1021.6
20260902054547 10 327 0.0 0.0 0.00 0.00 0.00 93 1021.5
20260902053053 10 327 0.0 0.0 0.00 0.00 0.00 93 1021.4
20260902051550 9 327 0.0 0.0 0.00 0.00 0.00 93 1021.5
20260902050046 9 327 0.0 0.0 0.00 0.00 0.00 93 1021.4
20260902044545 9 327 0.0 0.0 0.00 0.00 0.00 93 1021.3
20260902043043 9 327 0.0 0.0 0.00 0.00 0.00 93 1021.5
20260902041543 9 327 0.0 0.0 0.00 0.00 0.00 93 1021.5
20260902040043 9 327 0.0 0.0 0.00 0.00 0.00 93 1021.5
20260902034554 9 327 0.0 0.0 0.00 0.00 0.00 93 1021.6
20260902033054 10 326 0.0 0.0 0.00 0.00 0.00 93 1021.5
20260902031538 10 327 0.0 0.0 0.00 0.00 0.00 93 1021.5
20260902030037 10 327 0.0 0.0 0.00 0.00 0.00 92 1021.5
20260902024543 10 327 0.0 0.0 0.00 0.00 0.00 92 1021.5
20260902023034 10 327 0.0 0.0 0.00 0.00 0.00 92 1021.7
20260902021533 10 327 0.0 0.0 0.00 0.00 0.00 92 1021.6
20260902020038 10 327 0.0 0.0 0.00 0.00 0.00 92 1021.7
20260902014534 10 327 0.0 0.0 0.00 0.00 0.00 92 1021.6
20260902013029 11 327 0.0 0.0 0.00 0.00 0.00 92 1021.6
20260902011529 11 327 0.0 0.0 0.00 0.00 0.00 92 1021.7
20260902010027 11 327 0.0 0.0 0.00 0.00 0.00 92 1021.7
20260902004526 11 327 0.0 0.0 0.00 0.00 0.00 92 1021.7
20260902003025 11 326 0.0 0.0 0.00 0.00 0.00 92 1021.6
20260902001623 11 327 0.0 0.0 0.00 0.00 0.00 91 1021.6
20260902000022 11 327 0.0 0.0 0.00 0.00 0.00 91 1021.5
20260901234521 11 327 0.0 0.0 0.00 0.00 0.00 91 1021.7
20260901233028 12 327 0.0 0.0 0.00 0.00 0.00 91 1021.7
20260901231518 12 327 0.0 0.0 0.00 0.00 0.00 91 1021.9
20260901230017 12 326 0.0 0.0 0.00 0.00 0.00 90 1021.8
20260901224530 12 327 0.0 0.0 0.00 0.00 0.00 89 1021.7
20260901223012 12 327 0.0 0.0 0.00 0.00 0.00 89 1021.8
20260901221510 12 327 0.0 0.0 0.00 0.00 0.00 88 1021.9